TimeEST,TemperatureF,Dew PointF,Humidity,Sea Level PressureIn,VisibilityMPH,Wind Direction,Wind SpeedMPH,Gust SpeedMPH,PrecipitationIn,Events,Conditions,WindDirDegrees,DateUTC
12:53 AM,28.0,24.1,85,29.91,10.0,SW,9.2,-,N/A,,Overcast,230,2013-01-17 05:53:00
1:53 AM,28.4,24.8,86,29.85,10.0,SW,9.2,-,N/A,,Overcast,230,2013-01-17 06:53:00
2:53 AM,28.0,23.0,81,29.92,10.0,WSW,9.2,-,N/A,,Overcast,240,2013-01-17 07:53:00
3:53 AM,28.0,23.0,81,29.93,10.0,WSW,10.4,-,N/A,,Overcast,240,2013-01-17 08:53:00
4:10 AM,28.4,23.0,80,29.87,10.0,WSW,9.2,-,N/A,,Overcast,240,2013-01-17 09:10:00
4:53 AM,28.0,23.0,81,29.95,10.0,WSW,9.2,-,N/A,,Overcast,240,2013-01-17 09:53:00
5:53 AM,28.0,23.0,81,29.96,10.0,WSW,10.4,-,N/A,,Overcast,250,2013-01-17 10:53:00
6:53 AM,28.4,23.0,80,29.92,10.0,WSW,10.4,-,N/A,,Overcast,250,2013-01-17 11:53:00
7:53 AM,28.9,23.0,78,30.00,10.0,West,8.1,-,N/A,,Overcast,260,2013-01-17 12:53:00
8:53 AM,28.9,24.1,82,30.03,8.0,West,11.5,-,0.00,,Overcast,270,2013-01-17 13:53:00
9:53 AM,28.9,25.0,85,30.05,8.0,WSW,9.2,-,0.00,,Overcast,250,2013-01-17 14:53:00
10:30 AM,28.4,24.8,86,30.01,2.5,West,11.5,-,0.00,Snow,Light Snow,280,2013-01-17 15:30:00
10:44 AM,28.4,24.8,86,30.01,1.5,West,9.2,-,0.00,Snow,Light Snow,280,2013-01-17 15:44:00
10:53 AM,28.9,26.1,89,30.07,1.5,WNW,6.9,-,0.00,Snow,Light Snow,300,2013-01-17 15:53:00
11:10 AM,28.4,26.6,93,30.02,1.5,NNW,12.7,-,0.00,Snow,Light Snow,330,2013-01-17 16:10:00
11:25 AM,26.6,21.2,80,30.02,5.0,NNW,9.2,18.4,0.00,Snow,Light Snow,330,2013-01-17 16:25:00
11:36 AM,26.6,21.2,80,30.02,10.0,NNW,13.8,-,0.00,,Overcast,330,2013-01-17 16:36:00
11:53 AM,26.1,19.9,78,30.08,10.0,NNW,11.5,-,0.00,,Overcast,340,2013-01-17 16:53:00
12:13 PM,26.6,19.4,74,30.02,10.0,NW,15.0,23.0,N/A,,Overcast,320,2013-01-17 17:13:00
12:53 PM,25.0,19.0,78,30.08,7.0,NNW,11.5,18.4,0.00,Snow,Light Snow,330,2013-01-17 17:53:00
1:22 PM,24.8,19.4,80,30.00,9.0,NNW,9.2,-,0.00,Snow,Light Snow,330,2013-01-17 18:22:00
1:53 PM,24.1,18.0,77,30.07,10.0,NNW,12.7,-,0.00,,Overcast,340,2013-01-17 18:53:00
2:15 PM,23.0,17.6,80,30.02,10.0,North,6.9,-,N/A,,Overcast,360,2013-01-17 19:15:00
2:25 PM,23.0,15.8,74,30.03,10.0,North,5.8,-,N/A,,Overcast,350,2013-01-17 19:25:00
2:51 PM,21.2,15.8,80,30.02,10.0,North,6.9,-,N/A,,Overcast,360,2013-01-17 19:51:00
2:53 PM,21.9,15.1,75,30.09,10.0,North,8.1,-,N/A,,Overcast,350,2013-01-17 19:53:00
3:15 PM,21.2,14.0,74,30.03,10.0,North,6.9,-,N/A,,Overcast,10,2013-01-17 20:15:00
3:31 PM,21.2,14.0,74,30.02,10.0,NNE,5.8,-,N/A,,Overcast,20,2013-01-17 20:31:00
3:53 PM,21.9,14.0,72,30.09,10.0,NNE,5.8,-,N/A,,Overcast,20,2013-01-17 20:53:00
4:53 PM,21.0,14.0,74,30.10,10.0,NNE,4.6,-,N/A,,Overcast,20,2013-01-17 21:53:00
5:53 PM,19.9,12.0,71,30.11,10.0,North,8.1,-,N/A,,Overcast,350,2013-01-17 22:53:00
6:53 PM,19.9,12.0,71,30.13,10.0,North,5.8,-,N/A,,Mostly Cloudy,10,2013-01-17 23:53:00
7:53 PM,19.0,10.9,71,30.11,10.0,NNE,5.8,-,N/A,,Overcast,20,2013-01-18 00:53:00
8:53 PM,19.0,12.0,74,30.10,9.0,North,8.1,-,0.00,Snow,Light Snow,350,2013-01-18 01:53:00
9:53 PM,17.1,12.9,84,30.09,4.0,North,6.9,-,0.00,Snow,Light Snow,360,2013-01-18 02:53:00
10:30 PM,17.6,12.2,79,30.00,2.5,NE,3.5,-,0.00,Snow,Light Snow,40,2013-01-18 03:30:00
10:39 PM,17.6,12.2,79,30.01,4.0,Calm,Calm,-,0.00,Snow,Light Snow,0,2013-01-18 03:39:00
10:53 PM,17.1,12.9,84,30.07,5.0,Calm,Calm,-,0.00,Snow,Light Snow,0,2013-01-18 03:53:00
11:53 PM,17.1,12.9,84,30.08,9.0,North,8.1,-,0.00,Snow,Light Snow,350,2013-01-18 04:53:00